Tacoma, WA

4:52 PM PST on February 24, 2018 (GMT -0800)
McChord Air Force Base

Weather History for KTCM - November, 2012

Change the Weather History Date:

Sunday, November 18, 2012

  Actual Average Record
Temperature  
Mean Temperature 46 °F -  
Max Temperature 50 °F 48 °F 57 °F (2003)
Min Temperature 41 °F 35 °F 21 °F (2000)
Degree Days  
Heating Degree Days 20    
Moisture  
Dew Point 42 °F    
Average Humidity 87    
Maximum Humidity 100    
Minimum Humidity 71    
Precipitation  
Precipitation 0.36 in - - ()
Sea Level Pressure  
Sea Level Pressure 29.68 in    
Wind  
Wind Speed 9 mph (South)    
Max Wind Speed 18 mph    
Max Gust Speed 28 mph    
Visibility 10 miles    
Events Rain    
Averages and records for this station are not official NWS values.
T = Trace of Precipitation, MM = Missing Value Source: NWS Daily Summary

Daily Weather History Graph

Daily Weather History Graph

Search for Another Location

Airport or City:

Trip Planner

Search our weather history database for the weather conditions in past years. The results will help you decide how hot, cold, wet, or windy it might be!

Date:

Astronomy

Nov. 18, 2012 Rise Set
Actual Time 7:18 AM PST 4:31 PM PST
Civil Twilight 6:45 AM PST 5:04 PM PST
Nautical Twilight 6:07 AM PST 5:42 PM PST
Astronomical Twilight 5:31 AM PST 6:18 PM PST
Moon 11:44 AM PST (11/18) 10:03 PM PST (11/18)
Length of Visible Light 10h 19m
Length of Day
9h 12m
Waxing Crescent, 31% of the Moon is Illuminated
Nov 18
Waxing Crescent
Nov 20
First Quarter
Nov 28
Full
Dec 6
Last Quarter
Dec 13
New

Hourly Weather History & Observations

Time (PST) Temp. Windchill Dew Point Humidity Pressure Visibility Wind Dir Wind Speed Gust Speed Precip Events Conditions
12:55 AM 41.7 °F 35.6 °F 39.6 °F 92% 29.73 in 10.0 mi South 10.4 mph - N/A   Clear
1:55 AM 42.4 °F 38.1 °F 40.5 °F 93% 29.75 in 10.0 mi South 6.9 mph - N/A   Mostly Cloudy
1:56 AM 42.8 °F 38.6 °F 41.0 °F 93% 29.73 in 10.0 mi South 6.9 mph - N/A   Mostly Cloudy
2:43 AM 42.8 °F 38.0 °F 39.2 °F 87% 29.75 in 10.0 mi South 8.1 mph - N/A   Scattered Clouds
2:44 AM 42.8 °F 38.0 °F 39.2 °F 87% 29.74 in 10.0 mi South 8.1 mph - N/A   Mostly Cloudy
2:55 AM 42.6 °F 37.8 °F 40.3 °F 91% 29.76 in 10.0 mi South 8.1 mph - 0.00 in Rain Light Rain
2:56 AM 42.8 °F 38.0 °F 41.0 °F 93% 29.74 in 10.0 mi SSE 8.1 mph - N/A Rain Light Rain
3:06 AM 42.8 °F 38.0 °F 41.0 °F 93% 29.76 in 10.0 mi SSE 8.1 mph - N/A   Mostly Cloudy
3:07 AM 42.8 °F 38.0 °F 41.0 °F 93% 29.75 in 10.0 mi SSE 8.1 mph - N/A   Mostly Cloudy
3:32 AM 42.8 °F 39.3 °F 41.0 °F 93% 29.76 in 10.0 mi South 5.8 mph - N/A Rain Light Rain
3:33 AM 42.8 °F 39.3 °F 41.0 °F 93% 29.75 in 10.0 mi South 5.8 mph - N/A Rain Light Rain
3:55 AM 42.3 °F 38.6 °F 41.0 °F 95% 29.77 in 9.0 mi South 5.8 mph - 0.03 in   Overcast
3:58 AM 42.3 °F 38.6 °F 41.0 °F 95% 29.75 in 9.0 mi SSE 5.8 mph - 0.03 in   Overcast
4:06 AM 42.8 °F 39.3 °F 41.0 °F 93% 29.77 in 10.0 mi South 5.8 mph - N/A   Scattered Clouds
4:10 AM 42.8 °F 40.1 °F 41.0 °F 93% 29.77 in 10.0 mi South 4.6 mph - N/A Rain Light Rain
4:19 AM 41.0 °F 36.4 °F 41.0 °F 100% 29.76 in 10.0 mi South 6.9 mph - N/A   Mostly Cloudy
4:23 AM 41.0 °F 37.1 °F 41.0 °F 100% 29.76 in 10.0 mi South 5.8 mph - N/A Rain Light Rain
4:45 AM 42.8 °F 38.0 °F 41.0 °F 93% 29.76 in 10.0 mi SSE 8.1 mph - N/A   Overcast
4:58 AM 42.6 °F 37.8 °F 41.0 °F 94% 29.76 in 10.0 mi South 8.1 mph - 0.01 in   Overcast
5:58 AM 42.6 °F 39.0 °F 41.4 °F 95% 29.75 in 10.0 mi South 5.8 mph - N/A   Scattered Clouds
6:34 AM 42.8 °F 39.3 °F 41.0 °F 93% 29.74 in 10.0 mi South 5.8 mph - N/A Rain Light Rain
6:58 AM 42.8 °F 40.1 °F 41.4 °F 95% 29.74 in 10.0 mi South 4.6 mph - 0.00 in Rain Light Rain
7:22 AM 42.8 °F 40.1 °F 41.0 °F 93% 29.74 in 10.0 mi SSE 4.6 mph - N/A   Partly Cloudy
7:37 AM 42.8 °F 39.3 °F 41.0 °F 93% 29.73 in 10.0 mi SSE 5.8 mph - N/A   Light Drizzle
7:58 AM 44.1 °F 39.5 °F 41.2 °F 90% 29.74 in 10.0 mi SSE 8.1 mph - 0.01 in Rain Light Rain
8:39 AM 44.6 °F 40.2 °F 42.8 °F 93% 29.74 in 10.0 mi South 8.1 mph - N/A   Mostly Cloudy
8:46 AM 44.6 °F 39.2 °F 41.0 °F 87% 29.75 in 10.0 mi South 10.4 mph - N/A Rain Light Rain
8:58 AM 45.0 °F 40.6 °F 41.9 °F 89% 29.77 in 10.0 mi South 8.1 mph - 0.01 in Rain Light Rain
11:20 AM 46.4 °F 41.5 °F 41.0 °F 81% 29.76 in 10.0 mi SSE 10.4 mph - N/A   Overcast
11:24 AM 46.4 °F 41.9 °F 41.0 °F 81% 29.74 in 10.0 mi South 9.2 mph - N/A Rain Light Rain
11:35 AM 48.2 °F - 41.0 °F 76% 29.74 in 10.0 mi South 6.9 mph - N/A   Mostly Cloudy
11:37 AM 48.2 °F - 41.0 °F 76% 29.73 in 10.0 mi South 9.2 mph - N/A Rain Light Rain
11:49 AM 48.2 °F - 41.0 °F 76% 29.72 in 10.0 mi SSE 9.2 mph - N/A   Mostly Cloudy
11:56 AM 48.2 °F - 41.0 °F 76% 29.72 in 10.0 mi South 9.2 mph - N/A   Mostly Cloudy
1:55 PM 49.6 °F - 41.0 °F 72% 29.69 in 10.0 mi South 10.4 mph 20.7 mph 0.00 in   Partly Cloudy
2:08 PM 50.0 °F - 41.0 °F 71% 29.68 in 10.0 mi South 10.4 mph - N/A Rain Light Rain
2:21 PM 48.2 °F - 41.0 °F 76% 29.68 in 10.0 mi South 10.4 mph 20.7 mph N/A   Clear
4:27 PM 48.2 °F - 41.0 °F 76% 29.61 in 10.0 mi South 12.7 mph - N/A   Clear
4:55 PM 49.1 °F - 40.1 °F 71% 29.58 in 10.0 mi South 15.0 mph 21.9 mph N/A   Partly Cloudy
5:55 PM 48.2 °F - 42.8 °F 82% 29.53 in 9.0 mi South 13.8 mph 18.4 mph N/A Rain Light Rain
6:31 PM 48.2 °F - 42.8 °F 82% 29.52 in 10.0 mi South 13.8 mph - N/A   Mostly Cloudy
6:32 PM 48.2 °F - 42.8 °F 82% 29.52 in 10.0 mi South 13.8 mph - N/A   Mostly Cloudy
6:55 PM 47.8 °F - 42.1 °F 80% 29.55 in 10.0 mi SSW 13.8 mph 19.6 mph 0.01 in   Scattered Clouds
6:56 PM 48.2 °F - 42.8 °F 82% 29.55 in 10.0 mi South 12.7 mph 19.6 mph N/A Rain Light Rain
7:28 PM 48.2 °F - 42.8 °F 82% 29.53 in 10.0 mi South 18.4 mph 27.6 mph N/A   Mostly Cloudy
7:33 PM 48.2 °F - 42.8 °F 82% 29.53 in 10.0 mi South 16.1 mph 27.6 mph N/A Rain Light Rain
7:58 PM 48.7 °F - 42.4 °F 79% 29.56 in 10.0 mi South 11.5 mph 21.9 mph 0.01 in Rain Light Rain
8:00 PM 48.2 °F - 42.8 °F 82% 29.54 in 10.0 mi South 15.0 mph 21.9 mph N/A   Overcast
8:08 PM 50.0 °F - 42.8 °F 76% 29.55 in 10.0 mi South 12.7 mph 23.0 mph N/A Rain Light Rain
8:58 PM 47.8 °F - 44.2 °F 87% 29.60 in 10.0 mi South 13.8 mph - 0.03 in Rain Light Rain
9:09 PM 48.2 °F - 44.6 °F 87% 29.58 in 9.0 mi South 15.0 mph - N/A   Overcast
9:14 PM 48.2 °F - 44.6 °F 87% 29.58 in 9.0 mi South 12.7 mph - N/A Rain Light Rain
9:41 PM 48.2 °F - 44.6 °F 87% 29.58 in 10.0 mi South 12.7 mph - N/A   Overcast
9:50 PM 48.2 °F - 44.6 °F 87% 29.58 in 10.0 mi South 13.8 mph 21.9 mph N/A Rain Light Rain
9:58 PM 47.3 °F - 44.2 °F 89% 29.61 in 10.0 mi South 12.7 mph - 0.06 in Rain Light Rain
10:58 PM 46.8 °F - 44.8 °F 93% 29.60 in 7.0 mi SSE 12.7 mph - 0.13 in Rain Rain
11:47 PM 46.4 °F 40.7 °F 44.6 °F 93% 29.58 in 10.0 mi SSE 12.7 mph - N/A   Overcast
11:58 PM 46.8 °F - 44.4 °F 92% 29.59 in 10.0 mi SSE 10.4 mph 18.4 mph 0.06 in   Overcast